Location: Maccacari
(45.1333°N, 11.1333°E)
Time: 02:51:07
(UTC+00:00)

Altair - Pass Details

Date: 01 February 2021
Orbit: 1501 x 1682 km, 47.2° (Epoch: 01 March)

Event Time Altitude Azimuth Distance (km) Brightness Sun altitude
Rises 23:14:14 0° 172° (S) 4,749 - -61.5°
Reaches altitude 10° 23:19:26 10° 149° (SSE) 3,811 - -61.6°
Maximum altitude 23:23:42 14° 122° (ESE) 3,548 - -61.7°
Drops below altitude 10° 23:28:02 10° 95° (E) 3,881 - -61.7°
Exits shadow 23:33:14 - 73° (ENE) 4,873 10.2 -61.7°
Sets 23:33:23 0° 73° (ENE) 4,904 10.3 -61.7°
